Retour au catalogue

COSMOS 1823 DEB

ActifLEO
NORAD 39834·DEBRIS·🇷🇺 Russia

Lancé Feb 20, 1987 depuis Plesetsk Cosmodrome

Loading…

Prochains Passages (prochaines 24 heures)

TLE

VieillissantSource: Space-Track

Époque: Sep 12, 2026, 02:56 UTC

1 39834U 87020FJ  26255.12228196 -.00000032  00000-0 -11168-3 0  9992
2 39834  73.6000  42.0917 0047405 253.5330 106.0499 12.37995755796766

Suivez COSMOS 1823 DEB en temps réel avec AllMySat

Download on the App Store